Regional Weather Roundup
Issued by NWS

Home | Current Version | Previous Version | Text Only | Print | Product List | Glossary Off
Versions: 1 2 3 4 5 6 7 8 9 10 11 12 13 14 15 16 17 18 19 20 21 22 23 24 25 26 27 28 29 30 31 32 33 34 35 36 37 38 39 40 41 42 43 44 45 46 47 48 49 50

000
ASUS43 KMKX 222320
RWRWI

WISCONSIN REGIONAL WEATHER ROUNDUP
NATIONAL WEATHER SERVICE MILWAUKEE/SULLIVAN WI
600 PM CDT TUE MAY 22 2018

NOTE: "FAIR" INDICATES FEW OR NO CLOUDS BELOW 12,000 FEET WITH NO
SIGNIFICANT WEATHER AND/OR OBSTRUCTIONS TO VISIBILITY.

WIZ001-002-006>008-014>016-023>028-230000-
NORTHWEST WISCONSIN

CITY           SKY/WX    TMP DP  RH WIND       PRES   REMARKS
SUPERIOR ARPT  FAIR      77  54  45 S7        29.99S
ASHLAND        FAIR      77  52  41 N7        30.00S
HAYWARD        FAIR      72  56  57 S7        30.03S
SIREN          CLOUDY    73  55  53 SW6       30.04S
CUMBERLAND     CLOUDY    70  52  52 W5        30.05S
RICE LAKE      PTSUNNY   73  54  52 S6        30.05S
CHETEK         CLOUDY    70  57  62 CALM      30.04S
LADYSMITH      FAIR      73  57  56 SW8       30.05S
EAU CLAIRE     FAIR      70  57  63 S6        30.04S
MENOMONIE      FAIR      73  56  55 S7        30.05R
NEW RICHMOND   PTSUNNY   74  53  47 SW7       30.04S
OSCEOLA        CLOUDY    73  54  52 S7        30.06S
$$

WIZ003>005-009-010-017-018-230000-
NORTH CENTRAL WISCONSIN

CITY           SKY/WX    TMP DP  RH WIND       PRES   REMARKS
MANITOWISH WTR CLOUDY    73  51  46 NW6       30.02S
ARBOR VITAE    PTSUNNY   76  55  48 N6        30.02S
WOODRUFF       PTSUNNY   76  55  48 N6        30.02S
RHINELANDER    PTSUNNY   77  52  41 W9        30.02S
EAGLE RIVER    FAIR      76  43  31 SW8       30.00F
LAND O LAKES   FAIR      75  37  25 NW6       30.02S
PHILLIPS       PTSUNNY   71  55  56 W5        30.02S
TOMAHAWK       CLOUDY    71  54  54 CALM      30.03S
MEDFORD        FAIR      71  55  55 W7        30.03S
MERRILL        CLOUDY    73  57  57 SW7       30.02S
$$

WIZ029-030-035-036-043>047-230000-
CENTRAL WISCONSIN

CITY           SKY/WX    TMP DP  RH WIND       PRES   REMARKS
WAUSAU         CLOUDY    73  57  57 SW9       30.01F
MOSINEE        MOSUNNY   72  57  60 SW7       30.05S
MARSHFIELD     FAIR      70  58  65 W7        30.04F
STEVENS POINT  FAIR      69  55  61 SW8       30.04S
WAUPACA        FAIR      75  56  51 SW6       30.03S
WAUTOMA        CLOUDY    71  58  63 CALM      30.05S
WISC RAPIDS    FAIR      70  57  63 SW7       30.06S
CAMP DOUGLAS   CLOUDY    64  59  82 CALM      30.07R
$$

WIZ011>013-019>022-031-037>040-048>050-230000-
NORTHEAST WISCONSIN

CITY           SKY/WX    TMP DP  RH WIND       PRES   REMARKS
ANTIGO         FAIR      73  56  53 W7        30.02F
SHAWANO        FAIR      76  56  49 W9        30.00F
OCONTO         FAIR      71  51  49 S7        30.00S
STURGEON BAY   FAIR      71  53  52 S6        30.02S
GREEN BAY      FAIR      74  58  57 S3        30.01S
MANITOWOC      FAIR      61  52  72 E9        30.04R
APPLETON       PTSUNNY   72  54  53 SW7       30.02R
CLINTONVILLE   FAIR      74  54  49 W8        30.01F
OSHKOSH        FAIR      71  58  63 VRB5      30.03F
$$

WIZ032>034-041-042-053>061-230000-
SOUTHWEST WISCONSIN

CITY           SKY/WX    TMP DP  RH WIND       PRES   REMARKS
LA CROSSE      CLOUDY    67  58  72 NW5       30.06S
SPARTA         CLOUDY    64  57  80 CALM      30.08S
VIROQUA        CLOUDY    64  59  82 CALM      30.07F
BOSCOBEL       CLOUDY    71  60  68 VRB3      30.05F
PRAIRIE DU CHI FAIR      73  57  58 NW5       30.03F
PLATTEVILLE    PTSUNNY   71  63  74 CALM      30.05F
$$

WIZ056-057-062-063-064-067-068-230000-
SOUTH CENTRAL WISCONSIN

CITY           SKY/WX    TMP DP  RH WIND       PRES   REMARKS
REEDSBURG      CLOUDY    65  59  81 NW3       30.06S
BARABOO/DELLS  CLOUDY    65  56  71 CALM      30.07S
LONE ROCK      CLOUDY    67  59  75 CALM      30.06S
MINERAL POINT  PTSUNNY   68  61  77 CALM      30.07S
MADISON        CLOUDY    67  58  72 W5        30.05S
MIDDLETON      CLOUDY    67  59  74 NW7       30.07S
WATERTOWN      PTSUNNY   65  59  80 N5        30.06R
MONROE         CLOUDY    66  59  77 CALM      30.06R
JANESVILLE     PTSUNNY   70  57  64 NE7       30.05S
$$

WIZ051-052-058>065-066-070>072-230000-
SOUTHEAST WISCONSIN

CITY           SKY/WX    TMP DP  RH WIND       PRES   REMARKS
MILWAUKEE      FAIR      61  53  75 E6        30.05S
WAUKESHA       PTSUNNY   64  55  72 NW7       30.06F
MILWAUKEE/TIMM PTSUNNY   64  50  59 E3        30.05F
RACINE         FAIR      58  51  78 SE3       30.06F
BURLINGTON     PTSUNNY   67  56  70 W3        30.05S
KENOSHA        PTSUNNY   62  52  69 E9        30.05S
FOND DU LAC    FAIR      69  57  65 W7        30.04F
SHEBOYGAN      FAIR      71  58  63 W7        30.04R
WEST BEND      FAIR      66  57  72 N6        30.05S
JUNEAU         CLOUDY    65  56  71 CALM      30.07S
$$

LSZ147-162-230000-
LAKE SUPERIOR

STATION/POSITION TIME  TEMP    WIND        PRES    WAVE
                       AIR SEA DIR/SP/G            HT/PER
                 (UTC) (F)     (DEG/KT/KT) (MB)    (FT/S)
W MID LAKE BUOY  2250   47 36  280/  2/  2 1016.1F   0
DEVILS ISLAND    2300   67     210/  6/  9 1015.4F
SAXON HARBOR     2240   67     340/  2/  3 1015.6S
$$

LMZ867-665-643>646-230000-
LAKE MICHIGAN

STATION/POSITION TIME  TEMP    WIND        PRES    WAVE
                       AIR SEA DIR/SP/G            HT/PER
                 (UTC) (F)     (DEG/KT/KT) (MB)    (FT/S)
N MID LAKE BUOY  2300   41 38  190/  6/  8 1016.0
NORTHPORT PIER   2240   62     140/  3/  4 1015.9S
KEWAUNEE LAKESHO 2254   51     170/  8/ 10 1016.5S
SHEBOYGAN LAKESH 2300   51     170/ 11/ 12 1017.4S
PORT WASHINGTON  2240   56     180/  6/  8 1018.6S
ATWATER BUOY     2237   49 48  160/  2/  4 1018.0F   0
MILWAUKEE LAKESH 2300   52      80/  1/  2   N/A
KENOSHA   LAKESH 2300   51                 1017.9
$$

TC  - TEMPERATURE IN CELSIUS
VSB - VISIBILITY IN STATUTE MILES
WCI - WIND CHILL INDEX
HX  - HEAT INDEX





USA.gov is the U.S. government's official web portal to all federal, state and local government web resources and services.